| time (UTC) | temp F | wind direction | speed MPH | gust MPH | rain 1hr in | rain 24hr in | rain mn in | humidity % | barometer mb |
| 20260504150628 | 71 | 259 | 5.0 | 10.0 | 0.00 | 0.03 | 0.03 | 53 | 1001.3 |
| 20260504120308 | 54 | 0 | 0.0 | 0.0 | 0.00 | 0.02 | 0.02 | 86 | 1002.5 |
| 20260504080947 | 52 | 0 | 0.0 | 0.0 | 0.00 | 0.02 | 0.02 | 90 | 1004.4 |
| 20260504050627 | 56 | 74 | 0.0 | 1.0 | 0.00 | 0.00 | 0.00 | 74 | 1006.4 |
| 20260504044947 | 56 | 0 | 0.0 | 0.0 | 0.00 | 0.00 | 0.00 | 75 | 1006.3 |
| 20260504043307 | 55 | 283 | 0.0 | 2.0 | 0.00 | 0.00 | 0.00 | 81 | 1006.3 |
| 20260504041627 | 54 | 0 | 0.0 | 0.0 | 0.00 | 0.00 | 0.00 | 82 | 1006.3 |
| 20260504035947 | 54 | 0 | 0.0 | 0.0 | 0.00 | 0.00 | 0.00 | 82 | 1006.3 |
| 20260504034307 | 54 | 0 | 0.0 | 0.0 | 0.00 | 0.00 | 0.00 | 82 | 1006.6 |
| 20260504032627 | 54 | 0 | 0.0 | 0.0 | 0.00 | 0.00 | 0.00 | 80 | 1006.7 |
| 20260504030947 | 55 | 0 | 0.0 | 0.0 | 0.00 | 0.00 | 0.00 | 77 | 1006.8 |
| 20260504025308 | 56 | 0 | 0.0 | 0.0 | 0.00 | 0.00 | 0.00 | 76 | 1006.8 |
| 20260504023626 | 57 | 0 | 0.0 | 0.0 | 0.00 | 0.00 | 0.00 | 77 | 1007.1 |
| 20260504021948 | 58 | 0 | 0.0 | 0.0 | 0.00 | 0.00 | 0.00 | 73 | 1006.9 |
| 20260504020307 | 59 | 0 | 0.0 | 0.0 | 0.00 | 0.00 | 0.00 | 69 | 1007.0 |
| 20260504014627 | 61 | 0 | 0.0 | 0.0 | 0.00 | 0.00 | 0.00 | 64 | 1006.8 |
| 20260504012947 | 63 | 0 | 0.0 | 0.0 | 0.00 | 0.00 | 0.00 | 59 | 1006.8 |
| 20260504011306 | 65 | 0 | 0.0 | 0.0 | 0.00 | 0.00 | 0.00 | 53 | 1006.9 |
| 20260504005627 | 67 | 0 | 0.0 | 0.0 | 0.00 | 0.00 | 0.00 | 51 | 1006.9 |
| 20260504003947 | 68 | 281 | 0.0 | 2.0 | 0.00 | 0.00 | 0.00 | 50 | 1007.0 |
| 20260504002307 | 70 | 282 | 2.0 | 4.0 | 0.00 | 0.00 | 0.00 | 46 | 1007.1 |
| 20260504000627 | 70 | 272 | 1.0 | 5.0 | 0.00 | 0.00 | 0.00 | 44 | 1007.1 |
| 20260503234946 | 71 | 272 | 2.0 | 6.0 | 0.00 | 0.00 | 0.00 | 43 | 1007.1 |
| 20260503233307 | 71 | 274 | 2.0 | 5.0 | 0.00 | 0.00 | 0.00 | 43 | 1007.2 |
| 20260503225947 | 71 | 281 | 3.0 | 6.0 | 0.00 | 0.00 | 0.00 | 43 | 1007.2 |
| 20260503224307 | 72 | 280 | 3.0 | 10.0 | 0.00 | 0.00 | 0.00 | 44 | 1007.2 |
| 20260503222628 | 72 | 270 | 4.0 | 12.0 | 0.00 | 0.00 | 0.00 | 44 | 1007.2 |
| 20260503220946 | 72 | 267 | 4.0 | 7.0 | 0.00 | 0.00 | 0.00 | 45 | 1007.3 |
| 20260503215307 | 72 | 274 | 6.0 | 10.0 | 0.00 | 0.00 | 0.00 | 44 | 1007.5 |
| 20260503213627 | 72 | 274 | 4.0 | 10.0 | 0.00 | 0.00 | 0.00 | 44 | 1007.6 |
| 20260503211946 | 71 | 274 | 5.0 | 13.0 | 0.00 | 0.00 | 0.00 | 43 | 1007.6 |
| 20260503210308 | 70 | 276 | 5.0 | 9.0 | 0.00 | 0.00 | 0.00 | 42 | 1007.4 |
| 20260503204626 | 71 | 271 | 6.0 | 15.0 | 0.00 | 0.00 | 0.00 | 43 | 1007.8 |
| 20260503202947 | 71 | 274 | 6.0 | 12.0 | 0.00 | 0.00 | 0.00 | 42 | 1008.1 |
| 20260503201306 | 70 | 266 | 6.0 | 12.0 | 0.00 | 0.00 | 0.00 | 45 | 1008.3 |
| 20260503195626 | 70 | 268 | 6.0 | 14.0 | 0.00 | 0.00 | 0.00 | 46 | 1008.4 |
| 20260503193946 | 70 | 271 | 6.0 | 13.0 | 0.00 | 0.00 | 0.00 | 45 | 1008.3 |
| 20260503192306 | 70 | 261 | 5.0 | 11.0 | 0.00 | 0.00 | 0.00 | 46 | 1008.2 |
| 20260503190626 | 70 | 271 | 6.0 | 13.0 | 0.00 | 0.00 | 0.00 | 48 | 1008.5 |
| 20260503184946 | 69 | 269 | 6.0 | 16.0 | 0.00 | 0.00 | 0.00 | 48 | 1008.6 |
| 20260503183306 | 68 | 266 | 7.0 | 14.0 | 0.00 | 0.00 | 0.00 | 50 | 1008.9 |
| 20260503181626 | 67 | 263 | 8.0 | 16.0 | 0.00 | 0.00 | 0.00 | 47 | 1009.0 |
| 20260503174306 | 66 | 265 | 8.0 | 18.0 | 0.00 | 0.00 | 0.00 | 47 | 1009.6 |
| 20260503172626 | 66 | 264 | 6.0 | 15.0 | 0.00 | 0.00 | 0.00 | 51 | 1009.7 |
| 20260503170946 | 65 | 268 | 8.0 | 16.0 | 0.00 | 0.00 | 0.00 | 50 | 1010.0 |